Wind_Speed
25 23 14 9 16 20 29 31 24 27 28 28 30 28 28 30 30 30 29 32 33 33 32 34 35 37 38 39 40 42 44 45 48 50 50 52 53 54 56 59 62 64 66 68 71 73 73 74 76
17 13 8 8 15 23 30 30 23 18 20 21 20 22 24 24 25 26 26 30 30 32 34 34 34 35 36 37 40 41 42 43 44 43 44 44 45 47 49 51 54 57 61 65 67 70 73 75 77
8 4 7 12 18 14 21 24 25 23 23 24 23 24 24 27 26 26 26 27 29 28 29 31 31 30 32 33 33 32 32 32 32 33 34 35 36 38 39 41 47 51 55 57 59 63 67 70 72
7 9 13 24 23 29 26 26 27 26 27 28 28 26 25 26 26 25 26 29 28 29 28 28 27 26 23 20 21 24 25 28 29 31 33 36 38 40 40 42 46 48 49 49 49 53 54 56 58
11 11 17 15 18 23 26 27 26 26 26 26 26 27 27 27 26 27 26 29 26 22 18 17 16 18 19 22 27 30 31 33 35 37 38 39 41 43 44 45 46 45 44 47 48 51 53 53 55
10 9 9 19 24 21 19 19 21 23 25 25 25 22 18 19 20 19 15 16 15 11 13 18 19 24 26 28 32 35 37 39 39 39 43 45 46 46 42 39 38 38 38 38 40 43 47 49 54
7 8 13 18 14 16 18 16 17 18 14 10 12 9 11 9 11 13 10 14 22 24 22 21 23 26 30 31 36 40 42 41 41 42 43 39 38 36 35 36 38 38 42 44 34 35 39 43 48
5 10 14 20 17 16 15 15 15 15 14 12 11 11 12 15 14 17 21 22 20 25 29 30 31 30 32 42 43 43 41 39 38 35 37 33 31 32 34 34 37 38 40 39 35 43 47 51 54
19 22 22 20 18 16 15 13 13 11 14 13 12 13 15 22 21 21 25 25 27 23 28 34 38 41 41 41 42 41 41 38 34 32 31 30 27 26 27 34 35 33 38 42 41 46 51 57 60
19 18 16 14 14 14 12 12 10 11 13 15 14 18 24 22 20 20 23 30 36 36 32 33 39 43 46 46 43 43 40 34 32 30 31 29 26 33 37 37 37 42 47 42 48 50 51 55 63
16 14 14 13 10 11 11 10 11 10 12 17 22 19 26 27 25 27 31 36 38 39 40 38 33 39 37 38 40 41 43 35 32 31 32 32 39 39 42 38 50 47 51 54 54 56 57 59 54
15 14 9 7 10 17 19 20 20 12 14 17 22 22 26 25 26 31 33 38 38 39 41 36 36 32 35 34 39 40 34 35 35 36 37 39 43 42 45 50 48 52 56 60 62 61 62 64 68
14 12 15 15 20 19 24 23 12 18 28 25 27 29 30 31 29 33 38 39 39 40 38 37 34 35 37 36 35 36 36 34 35 37 42 43 44 45 47 49 49 55 57 59 64 67 71 74 72
10 14 13 17 20 20 23 25 12 15 30 38 27 31 33 34 35 37 37 38 39 40 38 35 36 37 36 36 36 35 33 35 36 38 42 47 48 47 49 51 57 63 67 69 71 70 68 65 60
5 14 21 24 16 21 30 12 7 29 35 29 30 33 31 33 37 42 39 40 39 38 42 38 35 36 37 36 35 33 38 40 42 46 52 52 48 50 53 57 62 72 73 66 67 66 61 53 49
6 4 5 14 12 23 28 23 22 36 34 34 33 39 31 32 36 40 44 45 41 40 38 38 34 32 36 34 32 36 41 45 50 53 55 56 59 61 58 67 66 61 63 67 62 51 44 38 35
4 0 7 16 27 26 23 12 10 17 32 30 41 39 35 35 40 48 46 46 45 42 38 37 37 37 36 32 32 32 32 39 40 43 44 47 50 46 51 55 61 61 56 50 45 38 31 30 27
7 7 8 14 23 22 26 23 13 6 10 30 38 33 35 38 44 46 55 49 41 39 38 36 38 36 38 35 36 35 38 42 45 44 49 47 50 51 54 57 57 49 45 40 33 29 26 23 23
14 12 17 21 21 7 8 18 14 15 23 25 17 19 27 34 44 47 56 43 41 41 41 37 41 40 32 30 35 41 43 46 49 48 50 52 53 55 53 50 51 47 39 33 30 28 25 24 25
17 15 17 20 19 12 12 14 25 33 22 17 15 24 42 50 54 55 60 42 40 40 38 36 39 35 38 42 45 45 47 51 51 50 53 52 51 50 48 48 49 45 38 34 31 28 27 26 27
18 15 20 23 7 4 6 18 28 34 12 11 14 32 42 46 54 62 48 42 43 40 37 38 36 38 41 45 47 49 51 50 49 51 54 53 53 51 48 48 47 42 38 34 31 28 27 30 30
15 19 21 17 8 6 11 19 19 25 20 32 34 40 50 55 57 54 48 49 48 44 43 44 46 48 50 52 53 53 51 48 47 50 49 46 51 50 46 48 50 41 36 34 32 29 29 29 29
21 18 11 14 10 14 16 18 15 18 17 27 25 38 39 39 59 51 51 51 47 47 50 54 57 59 60 58 56 53 51 48 46 46 44 43 48 48 50 48 47 41 36 33 30 30 30 31 31
20 17 16 14 16 16 23 19 16 9 4 11 34 41 39 51 54 54 50 49 49 52 55 59 61 62 59 53 47 44 41 43 43 42 41 46 47 49 48 46 44 42 37 34 32 31 31 31 30
15 19 23 21 21 27 21 17 14 7 5 19 28 28 46 51 52 53 50 50 49 52 58 59 61 56 48 48 46 36 43 48 41 39 41 42 47 46 47 44 42 42 39 35 33 32 32 33 34
25 25 24 28 26 25 23 21 24 19 20 21 23 42 45 45 48 50 47 50 52 55 58 58 57 50 47 43 40 40 51 50 41 37 41 43 47 48 46 44 41 41 39 36 34 35 37 40 38
24 23 26 28 24 22 16 15 28 19 20 33 43 40 36 47 47 47 46 48 54 55 54 54 51 44 40 21 41 45 51 43 38 43 50 49 48 46 42 42 41 42 40 39 37 39 41 41 42
25 28 27 28 27 20 20 22 28 27 26 31 40 28 49 53 47 47 53 51 53 55 54 53 51 47 35 37 39 38 38 42 41 42 53 48 44 42 40 40 39 39 40 38 39 40 41 40 38
26 26 28 27 25 23 19 25 22 25 29 33 23 50 53 50 43 46 52 53 49 50 53 52 48 42 40 33 36 30 24 37 38 41 45 41 41 41 43 42 42 42 42 44 45 45 43 41 38
33 23 18 18 16 25 24 23 26 24 31 40 46 47 49 46 46 49 50 52 51 47 49 50 50 46 38 34 35 30 32 41 40 40 43 44 44 41 45 43 44 46 47 46 45 48 49 44 43
Wind_Direction
264 273 290 283 284 260 261 275 279 270 265 265 268 270 274 275 277 275 276 272 274 276 279 279 280 280 281 282 283 283 281 281 281 281 280 279 280 280 280 279 278 276 276 274 272 270 267 263 261
256 261 271 286 249 269 276 282 278 277 275 273 276 276 280 279 282 284 285 286 285 287 285 286 286 286 284 281 282 284 286 286 285 284 284 284 284 283 282 281 279 277 276 275 273 271 270 269 267
235 246 215 298 257 257 268 285 290 288 290 288 286 285 282 284 280 282 284 286 289 288 285 286 285 286 287 285 284 284 282 281 281 280 281 282 283 281 279 278 277 276 275 275 273 271 270 270 271
245 250 239 221 258 272 279 282 282 282 283 284 286 284 283 287 289 289 295 295 292 290 286 284 285 285 286 287 285 286 281 278 277 280 282 282 282 282 281 279 281 281 278 275 273 272 272 270 270
255 251 255 240 263 275 274 277 284 283 285 286 289 290 290 295 295 299 293 286 284 285 287 277 285 286 284 287 286 286 286 287 286 286 286 285 283 280 274 277 279 277 277 278 279 276 275 275 270
231 227 272 270 279 291 297 303 302 304 304 304 302 304 309 306 307 301 291 294 298 271 295 304 294 294 291 293 296 298 296 294 289 288 289 286 282 278 274 275 278 278 278 287 285 278 273 269 270
246 264 289 288 306 330 327 336 328 323 338 1 7 349 348 343 345 338 321 331 327 316 300 300 295 294 298 298 298 302 301 299 295 288 287 285 283 278 278 279 279 279 280 288 286 280 266 265 261
61 101 72 57 47 46 48 54 55 45 38 36 29 20 4 348 338 328 322 316 313 312 307 300 297 286 288 304 303 303 303 299 296 284 281 288 289 291 291 291 295 291 287 285 279 272 265 261 262
64 73 61 62 61 59 53 47 38 30 18 3 354 346 337 332 321 326 322 318 311 299 305 304 305 304 302 307 302 302 305 298 293 294 292 292 294 295 310 292 291 293 289 277 283 282 275 270 268
59 62 61 52 44 36 19 12 3 359 356 347 345 335 338 332 315 311 312 325 324 318 304 296 299 305 305 304 303 301 305 301 289 289 294 295 295 294 292 287 281 288 293 296 281 288 287 277 274
73 72 66 54 35 13 5 2 356 340 327 321 327 333 338 338 329 326 322 322 316 314 311 303 299 301 297 300 303 304 305 300 290 288 291 289 294 297 299 297 301 294 293 292 296 299 298 288 284
56 40 43 40 18 4 352 334 325 328 336 336 331 335 332 331 324 327 321 316 319 318 315 308 307 298 301 301 302 301 300 290 290 287 295 296 299 293 292 291 294 290 287 287 288 293 294 298 293
82 23 357 327 357 356 343 356 337 332 335 347 335 333 330 328 321 321 320 323 322 320 318 315 311 307 307 307 307 305 305 298 298 301 301 295 290 284 282 289 293 291 290 291 290 293 292 294 290
10 26 356 347 339 343 339 352 321 335 327 332 335 332 331 331 328 323 323 324 324 322 319 318 316 313 311 311 310 308 311 303 306 309 308 296 291 281 280 289 292 298 300 302 303 302 300 299 295
7 43 349 331 335 332 360 24 328 323 318 323 336 338 338 329 326 326 325 328 327 325 323 321 319 313 309 309 307 307 301 300 299 304 303 302 301 300 291 299 304 304 302 303 305 303 299 299 295
52 90 327 317 319 337 7 356 357 322 323 329 336 332 336 339 343 334 327 328 328 327 325 323 321 316 316 315 306 299 299 304 300 299 298 300 299 302 300 303 303 307 306 303 304 305 301 303 300
8 268 298 344 10 1 359 26 202 339 336 327 332 329 330 342 347 345 334 330 330 328 324 322 316 312 315 307 311 306 309 306 311 314 311 312 309 308 308 311 312 310 309 307 308 305 304 302 305
310 326 306 317 337 26 27 17 309 268 244 324 310 316 322 327 334 341 335 328 326 324 322 318 319 316 313 311 311 312 314 316 319 316 317 314 313 310 313 312 317 319 317 316 311 309 309 306 299
316 339 341 349 335 328 349 330 344 267 306 311 352 344 327 339 328 332 329 321 323 321 320 313 320 318 319 323 317 315 314 317 316 314 317 319 318 318 317 321 329 329 322 316 316 313 308 307 306
299 314 318 345 339 343 310 268 316 319 327 293 303 277 298 312 314 318 323 322 320 320 323 319 317 315 312 316 318 318 318 319 317 318 320 317 316 320 328 329 332 329 321 320 320 313 309 309 310
289 296 325 339 350 359 283 270 290 309 337 276 276 305 304 298 313 317 325 324 322 321 324 325 321 318 315 316 316 317 319 317 316 314 317 322 324 326 330 333 335 327 322 322 321 313 306 307 309
306 312 319 330 318 301 314 278 294 310 292 293 276 291 302 303 310 327 329 327 327 328 326 325 324 321 319 319 317 316 314 312 313 317 320 320 324 325 326 330 333 329 325 321 319 316 311 308 308
320 314 327 321 319 292 308 303 319 331 314 320 303 309 314 315 318 330 330 327 325 325 328 329 326 323 321 318 316 313 312 311 311 314 317 320 325 326 326 329 332 328 325 322 320 317 315 312 309
305 304 321 331 334 313 305 314 327 18 133 237 305 309 313 321 326 327 326 325 329 330 331 328 326 326 325 323 322 321 324 321 319 317 321 325 327 328 331 332 331 329 324 324 324 319 312 311 312
305 316 320 317 325 325 313 316 324 324 229 271 292 273 313 316 322 323 327 328 330 330 329 328 329 333 334 331 327 337 345 340 334 330 329 330 329 332 333 333 333 329 324 321 323 320 314 313 314
308 312 304 304 309 313 319 318 326 326 286 274 276 301 307 317 321 324 330 328 330 333 331 334 337 342 346 351 344 339 338 339 337 340 335 336 336 339 337 334 334 332 329 324 318 314 312 311 309
297 297 298 295 303 297 307 260 308 330 343 319 303 308 311 321 327 324 324 330 335 332 333 339 344 347 354 338 340 332 327 336 333 336 335 339 340 339 338 334 334 337 335 329 327 325 322 317 312
295 286 292 294 293 296 295 274 319 317 307 294 312 295 310 322 326 324 331 336 334 334 337 342 348 344 343 330 337 337 335 328 328 326 325 333 337 344 347 343 340 343 344 338 332 334 335 332 326
281 292 295 295 285 298 304 277 295 319 310 304 286 296 314 317 323 331 330 330 336 336 336 337 341 345 340 330 329 339 296 323 323 311 325 330 328 339 337 337 342 340 339 342 345 344 338 341 337
283 280 302 290 279 307 311 293 298 291 290 295 299 310 315 313 328 331 329 333 334 336 334 334 335 336 335 332 327 318 299 317 312 311 323 324 326 331 335 329 339 336 333 331 335 340 341 337 334
Height
10963 10965 10967 10966 10973 10966 10965 10966 10965 10963 10963 10962 10961 10961 10960 10961 10961 10961 10956 10956 10953 10952 10950 10948 10947 10945 10943 10942 10940 10937 10936 10935 10933 10931 10930 10928 10926 10924 10922 10920 10918 10917 10917 10918 10919 10920 10920 10922 10924
10965 10967 10966 10965 10964 10964 10960 10962 10963 10960 10960 10960 10960 10959 10956 10957 10956 10956 10956 10949 10949 10947 10945 10943 10941 10938 10936 10934 10932 10930 10929 10926 10924 10922 10920 10918 10916 10914 10913 10911 10908 10907 10906 10906 10906 10905 10904 10906 10907
10961 10965 10963 10962 10959 10960 10958 10958 10958 10957 10958 10956 10956 10955 10953 10952 10951 10951 10948 10946 10943 10943 10940 10938 10935 10932 10930 10928 10926 10924 10922 10920 10917 10916 10914 10912 10909 10907 10905 10902 10898 10896 10895 10894 10893 10891 10890 10890 10890
10962 10962 10961 10958 10957 10958 10957 10957 10957 10955 10955 10952 10953 10951 10949 10948 10946 10946 10943 10939 10939 10935 10933 10931 10928 10927 10925 10923 10921 10919 10916 10914 10913 10911 10908 10906 10903 10901 10898 10896 10893 10890 10887 10884 10882 10879 10878 10878 10876
10959 10957 10958 10960 10958 10958 10955 10954 10953 10953 10951 10949 10949 10948 10947 10944 10943 10942 10941 10934 10933 10932 10926 10925 10924 10923 10921 10919 10917 10915 10912 10910 10908 10905 10902 10899 10897 10894 10891 10888 10885 10882 10880 10877 10874 10871 10869 10868 10865
10954 10955 10956 10957 10955 10953 10953 10952 10951 10950 10949 10948 10945 10943 10942 10940 10939 10939 10939 10932 10929 10930 10927 10924 10923 10920 10917 10914 10912 10909 10907 10904 10901 10898 10895 10892 10889 10885 10881 10878 10876 10874 10871 10868 10866 10863 10859 10856 10854
10952 10952 10953 10954 10953 10951 10950 10949 10948 10947 10946 10944 10943 10941 10941 10940 10939 10935 10935 10935 10929 10924 10924 10922 10919 10915 10912 10910 10906 10903 10899 10895 10892 10889 10885 10882 10879 10877 10873 10869 10867 10865 10862 10859 10856 10854 10850 10847 10843
10956 10955 10955 10951 10950 10949 10949 10948 10948 10947 10946 10945 10944 10942 10940 10939 10937 10936 10932 10931 10933 10924 10919 10916 10914 10912 10910 10905 10899 10895 10890 10887 10883 10880 10876 10873 10870 10868 10865 10863 10858 10856 10853 10850 10846 10843 10839 10835 10832
10956 10952 10953 10952 10951 10951 10950 10948 10947 10946 10944 10944 10943 10941 10940 10938 10935 10933 10930 10928 10925 10927 10921 10914 10908 10902 10899 10897 10892 10888 10883 10879 10874 10871 10868 10865 10861 10859 10857 10853 10849 10847 10844 10840 10837 10834 10829 10825 10821
10958 10954 10953 10953 10951 10951 10950 10948 10947 10945 10942 10941 10941 10939 10938 10935 10933 10931 10928 10924 10921 10916 10917 10915 10907 10898 10892 10888 10883 10879 10875 10873 10869 10866 10862 10859 10855 10851 10846 10843 10840 10836 10832 10830 10826 10822 10818 10814 10808
10958 10956 10954 10953 10952 10951 10948 10949 10947 10944 10942 10941 10938 10937 10934 10932 10928 10926 10924 10918 10915 10910 10905 10903 10907 10900 10890 10884 10877 10871 10866 10862 10861 10858 10854 10850 10846 10843 10838 10834 10831 10825 10821 10816 10812 10806 10802 10798 10793
10957 10956 10954 10952 10952 10954 10954 10951 10948 10947 10945 10942 10938 10934 10930 10928 10926 10921 10918 10915 10910 10904 10898 10894 10892 10888 10885 10880 10875 10868 10863 10856 10852 10850 10846 10842 10837 10833 10828 10822 10818 10813 10809 10803 10798 10791 10785 10780 10774
10956 10959 10959 10955 10952 10953 10952 10948 10947 10948 10948 10943 10937 10932 10928 10923 10922 10920 10914 10906 10903 10899 10893 10886 10883 10878 10873 10868 10864 10858 10854 10850 10846 10842 10838 10832 10826 10822 10817 10811 10805 10799 10793 10788 10782 10776 10769 10762 10755
10961 10960 10959 10956 10952 10953 10951 10948 10943 10946 10945 10939 10933 10928 10923 10919 10915 10912 10910 10904 10898 10891 10886 10882 10875 10869 10864 10859 10854 10851 10847 10844 10839 10833 10828 10823 10817 10811 10804 10799 10792 10786 10778 10770 10762 10754 10748 10741 10733
10959 10958 10957 10955 10955 10956 10949 10946 10944 10946 10942 10935 10931 10925 10919 10914 10909 10905 10901 10897 10893 10888 10879 10875 10870 10864 10858 10853 10848 10843 10840 10835 10830 10826 10819 10814 10808 10800 10793 10788 10779 10770 10760 10753 10745 10737 10731 10724 10717
10959 10958 10959 10954 10954 10951 10947 10944 10941 10937 10935 10932 10927 10922 10919 10913 10908 10902 10896 10891 10887 10882 10876 10870 10866 10859 10853 10847 10842 10837 10832 10828 10821 10815 10810 10802 10796 10788 10782 10775 10765 10756 10747 10739 10730 10722 10716 10711 10707
10960 10960 10955 10951 10949 10946 10944 10942 10943 10938 10930 10927 10924 10919 10916 10911 10904 10898 10892 10886 10880 10876 10871 10866 10861 10854 10848 10842 10836 10831 10827 10821 10815 10807 10799 10792 10784 10778 10770 10763 10753 10744 10733 10725 10717 10712 10708 10704 10699
10957 10956 10953 10948 10946 10946 10943 10941 10930 10931 10921 10929 10929 10921 10911 10907 10903 10897 10888 10882 10877 10873 10869 10862 10856 10849 10844 10838 10832 10827 10822 10814 10807 10800 10791 10783 10776 10768 10761 10752 10743 10731 10721 10714 10709 10704 10700 10696 10694
10953 10951 10948 10946 10942 10943 10939 10940 10937 10937 10938 10935 10928 10906 10902 10901 10903 10900 10889 10885 10876 10869 10863 10858 10851 10845 10839 10833 10827 10821 10814 10806 10799 10791 10784 10775 10765 10758 10750 10741 10729 10721 10713 10707 10701 10697 10693 10690 10686
10952 10950 10945 10946 10942 10938 10938 10936 10932 10932 10929 10924 10925 10913 10896 10899 10895 10893 10885 10880 10874 10866 10859 10853 10846 10840 10834 10827 10819 10811 10804 10797 10788 10781 10773 10767 10760 10751 10741 10732 10723 10714 10708 10701 10695 10690 10687 10684 10680
10950 10948 10945 10945 10942 10937 10935 10935 10930 10926 10926 10919 10918 10912 10904 10898 10893 10888 10880 10874 10868 10862 10855 10848 10841 10833 10825 10816 10808 10800 10793 10786 10778 10772 10763 10754 10745 10739 10732 10725 10716 10708 10701 10695 10690 10686 10681 10677 10673
10948 10946 10943 10942 10941 10937 10937 10933 10932 10924 10921 10915 10912 10907 10899 10893 10890 10882 10875 10868 10861 10855 10849 10840 10831 10822 10813 10804 10796 10788 10781 10774 10767 10760 10752 10747 10741 10732 10726 10719 10711 10702 10695 10689 10683 10679 10674 10670 10665
10945 10941 10940 10940 10938 10936 10934 10930 10930 10925 10918 10914 10905 10903 10895 10889 10883 10878 10868 10863 10858 10850 10839 10829 10818 10809 10800 10791 10782 10775 10769 10762 10755 10750 10744 10739 10734 10727 10720 10711 10703 10695 10689 10683 10678 10673 10667 10662 10658
10941 10938 10937 10937 10935 10932 10927 10926 10925 10924 10915 10908 10904 10895 10894 10886 10877 10871 10867 10860 10851 10841 10830 10820 10810 10801 10790 10780 10773 10766 10760 10754 10747 10740 10734 10728 10722 10718 10712 10703 10696 10689 10683 10677 10671 10666 10662 10657 10651
10939 10937 10932 10933 10932 10928 10925 10924 10921 10920 10915 10911 10897 10894 10889 10880 10873 10866 10861 10856 10852 10838 10824 10814 10806 10796 10785 10774 10766 10762 10755 10748 10742 10735 10730 10723 10715 10709 10702 10695 10689 10683 10677 10671 10665 10659 10654 10649 10644
10936 10934 10929 10927 10928 10924 10919 10917 10917 10916 10915 10911 10902 10893 10887 10879 10870 10858 10859 10851 10842 10831 10818 10809 10801 10789 10778 10767 10761 10761 10752 10743 10738 10732 10726 10718 10711 10703 10697 10691 10684 10677 10671 10665 10659 10653 10648 10641 10635
10930 10929 10925 10919 10922 10920 10919 10917 10912 10911 10912 10897 10897 10889 10880 10871 10867 10857 10856 10849 10836 10826 10814 10807 10799 10787 10775 10764 10757 10754 10751 10740 10732 10725 10720 10713 10707 10700 10692 10686 10680 10671 10664 10658 10652 10646 10638 10631 10624
10922 10918 10918 10915 10912 10913 10913 10911 10908 10906 10905 10898 10888 10882 10874 10867 10863 10854 10845 10843 10833 10815 10807 10801 10796 10783 10772 10764 10756 10752 10744 10736 10727 10723 10718 10710 10705 10697 10688 10682 10674 10668 10661 10654 10646 10638 10631 10623 10615
10917 10913 10911 10909 10907 10907 10908 10903 10901 10899 10893 10888 10880 10876 10870 10862 10858 10851 10841 10833 10831 10817 10803 10796 10793 10788 10777 10766 10758 10748 10737 10730 10725 10721 10714 10708 10702 10694 10685 10678 10671 10663 10656 10648 10641 10632 10624 10617 10609
10910 10909 10906 10904 10902 10903 10902 10899 10894 10894 10888 10881 10876 10872 10868 10855 10849 10844 10836 10825 10817 10814 10803 10791 10784 10781 10777 10769 10760 10745 10737 10729 10723 10716 10709 10702 10695 10687 10680 10672 10665 10657 10650 10642 10634 10627 10619 10611 10603